Find Starlink 30792

NORAD ID: 58220 Int'l Des: 2023-170 Owner: SPXS Country: US Constellation: starlink operational
LEOCIRCULAR

Live Position

Loading 3D Globe...

About Starlink 30792

Description loading...

Upcoming Passes

Passes for default location (London). Set your location on the main map for personalized predictions.

Altitude History

Loading altitude history...

Two-Line Element Set

1 58220U 23170Q 26120.45431944 .00023820 00000-0 16037-2 0 9999
2 58220 43.0003 273.1559 0005805 297.3215 62.7037 15.06272286138082
Epoch: Apr 30, 2026 • Age: 26 hours

Current Status

Altitude 545.0 km
Velocity 7.59 km/s
Sub-Earth Point 6.67°N, 131.09°W
Launch Date Nov 4, 2023
Age 2.4 years
Type internet

Technical Details

Classification Payload
Mass 730.00 kg
Dry Mass 700.00 kg
Total Mass 730.00 kg
Length 0.30 m
Diameter 4.10 m
Span 29.00 m
Shape Box + pan
Manufacturer SPXS
Bus Type Starlink V2M
Phase Status In Orbit
Owner/State SPXS/US

Most Searched